This demonstration page uses our WeatherBlox Daily Observations layout. Learn more.

Left ArrowRight Arrow

36.17497, -115.13722

Hourly Observations for July 29, 2017

Temp ( °F °C ) Dew Point ( °F °C ) Humidity (%) Winds ( mph kmh ) Pressure ( in mb ) Visibility ( mi km ) Precip ( " mm )
12:53 am 00:53 Clear 93 33.9 51 10.6 24 24 SW 9 15 29.81 1009 10 16 N/A
1:53 am 01:53 Clear 91 32.8 48 8.9 23 23 N N/A 29.82 1010 10 16 N/A
2:53 am 02:53 Clear 90 32.2 50 10 25 25 N N/A 29.83 1010 10 16 N/A
3:53 am 03:53 Clear 88 31.1 53 11.7 30 30 SSE 7 11 29.85 1011 10 16 N/A
4:53 am 04:53 Clear 86 30 52 11.1 31 31 ESE 8 13 29.87 1012 10 16 N/A
5:53 am 05:53 Sunny 85 29.4 56 13.3 37 37 E 13 20 29.89 1012 10 16 N/A
6:53 am 06:53 Sunny 86 30 57 13.9 37 37 E 13 20 29.93 1013 10 16 N/A
7:53 am 07:53 Sunny 87 30.6 58 14.4 37 37 ESE 17 28 29.96 1014 10 16 N/A
8:53 am 08:53 Sunny 89 31.7 58 14.4 35 35 SE 10 17 29.97 1015 10 16 N/A
9:53 am 09:53 Sunny 92 33.3 56 13.3 30 30 ESE 6 9 29.96 1015 10 16 N/A
10:53 am 10:53 Sunny 94 34.4 55 12.8 27 27 VRB 6 9 29.96 1014 10 16 N/A
11:53 am 11:53 Sunny 97 36.1 56 13.3 25 25 undefined N/A 29.94 1014 10 16 N/A
12:53 pm 12:53 Sunny 98 36.7 56 13.3 24 24 SE 10 17 29.92 1013 10 16 N/A
1:53 pm 13:53 Sunny 100 37.8 53 11.7 21 21 VRB 6 9 29.90 1012 10 16 N/A
2:53 pm 14:53 Sunny 102 38.9 51 10.6 18 18 VRB 3 6 29.87 1012 10 16 N/A
3:53 pm 15:53 Sunny 104 40 49 9.4 16 16 SE 10 17 29.85 1011 10 16 N/A
4:53 pm 16:53 Sunny 104 40 47 8.3 15 15 SE 7 11 29.83 1010 10 16 N/A
5:53 pm 17:53 Sunny 104 40 47 8.3 15 15 SSE 7 11 29.81 1009 10 16 N/A
6:53 pm 18:53 Sunny 103 39.4 50 10 17 17 SSE 10 17 29.81 1010 10 16 N/A
7:53 pm 19:53 Clear 101 38.3 51 10.6 19 19 SSE 5 7 29.83 1010 10 16 N/A
8:53 pm 20:53 Clear 100 37.8 53 11.7 21 21 SSE 9 15 29.86 1011 10 16 N/A
9:53 pm 21:53 Clear 98 36.7 52 11.1 21 21 SE 8 13 29.88 1012 10 16 N/A
10:53 pm 22:53 Clear 96 35.6 50 10 21 21 E 15 24 29.90 1013 10 16 N/A
11:53 pm 23:53 Clear 93 33.9 50 10 23 23 E 20 31 29.91 1013 10 16 N/A

Powered by AerisWeather